[[{"header":{"parameterUnit":"m.s-1","parameterCategory":1,"la1":30.2991,"la2":30.254,"lo1":-89.0895,"lo2":-89.0444,"dy":0.0017,"dx":0.0017,"nx":28,"ny":28,"refTime":"2023-07-31T09:00:00:Z","depth":0,"parameterNumber":2,"parameterNumberName":"U-component_of_WINDS"},"data":[0,0,0,0,0,0,0,0,0,0,0,0,0,0,0,0,0,0,0,0,0,0,0,0,0,0,0,0,0,0,0,0,0,0,0,0,0,0,0,0,0,0,0,0,0,0,0,0,0,0,0,0,0,0,0,0,0,0,1.8448,1.8449,0,1.85,1.85,1.8501,1.8464,1.8462,1.846,1.8459,1.8511,1.8514,1.8517,0,0,0,0,0,0,0,0,0,0,0,0,0,1.8316,1.8319,1.8448,1.8449,1.8449,1.85,1.85,1.8501,1.8464,1.8462,1.846,1.8458,1.851,1.8513,1.8517,0,0,0,0,0,0,0,0,0,0,0,0,0,1.8371,1.832,1.8448,1.8437,1.8437,1.85,1.85,1.8501,1.8464,1.8462,1.8459,1.8457,1.8509,1.8513,1.8517,1.8594,0,0,1.8531,1.8533,0,0,0,0,0,0,0,0,1.8368,1.8376,1.8438,1.8438,1.8437,1.8473,1.8473,1.8532,1.8465,1.8454,1.8459,1.8456,1.85,1.8505,1.852,1.8596,1.8599,1.8531,1.8534,1.8536,1.8537,0,0,0,0,0,0,0,1.8364,1.8374,1.8469,1.8439,1.8439,1.8429,1.8434,1.8484,1.849,1.8455,1.8452,1.8459,1.85,1.8516,1.8521,1.8599,1.8531,1.8535,1.8538,1.8539,1.8739,1.8742,0,0,0,0,0,0,1.8362,1.8371,1.8467,1.847,1.8396,1.8433,1.8439,1.8464,1.849,1.8491,1.8461,1.8457,1.851,1.8516,1.8523,1.8613,1.8536,1.854,1.8542,1.8737,1.874,1.8743,0,0,0,0,0,0,1.8359,1.8371,1.8465,1.842,1.8431,1.8438,1.8466,1.8466,1.8483,1.8494,1.8495,1.8476,1.8508,1.8517,1.8576,1.8614,1.8542,1.8546,1.8734,1.8738,1.8741,1.8795,0,0,0,0,0,0,1.8355,1.837,1.8399,1.8421,1.8434,1.8518,1.8469,1.8469,1.849,1.8486,1.8509,1.8511,1.8507,1.857,1.8581,1.8619,1.8549,1.873,1.8735,1.874,1.879,1.88,1.8809,0,0,0,0,0,1.8351,1.8413,1.8401,1.8413,1.8471,1.852,1.8528,1.8522,1.8494,1.8523,1.853,1.851,1.8609,1.8576,1.8588,1.8628,1.8728,1.8734,1.874,1.8785,1.8798,1.8809,0,0,0,0,0,0,1.8396,1.8415,1.8403,1.8473,1.8495,1.8514,1.8551,1.8536,1.8566,1.8561,1.8552,1.8558,1.862,1.863,1.8594,1.8703,1.8664,1.8672,1.8694,1.8706,1.8716,1.8712,1.8553,0,0,0,0,0,1.8414,1.8453,1.8468,1.8528,1.854,1.8544,1.8565,1.8559,1.8581,1.859,1.8602,1.8624,1.866,1.8684,1.8718,1.8791,1.8795,1.8825,1.8834,1.8842,1.885,1.8888,1.8901,1.8763,1.8763,1.8763,0,0,1.8452,1.8467,1.8492,1.8538,1.8554,1.8594,1.8552,1.8596,1.8625,1.8597,1.8654,1.8663,1.8687,1.8754,1.8784,1.8764,1.8889,1.885,1.8856,1.8859,1.8896,1.8909,1.892,1.8767,1.8766,1.8765,0,0,1.8541,1.8557,1.8609,1.8626,1.8651,1.8653,1.8665,1.8686,1.8691,1.8748,1.8727,1.8762,1.8824,1.8842,1.8859,1.8954,1.8936,1.8965,1.9016,1.9053,1.9064,1.9074,1.9107,1.9119,1.8973,1.8973,1.8973,0,1.8585,1.8644,1.8637,1.8683,1.8703,1.8679,1.8731,1.8748,1.8783,1.8797,1.8775,1.8852,1.8867,1.8936,1.8959,1.8975,1.8988,1.8962,1.9063,1.9073,1.9082,1.9113,1.9126,1.8976,1.8976,1.8975,1.8975,0,1.8696,1.8738,1.8777,1.8811,1.8835,1.8884,1.8884,1.8909,1.8901,1.8905,1.8962,1.8979,1.9015,1.9032,1.9024,1.91,1.9087,1.9065,1.9024,1.9098,1.9128,1.914,1.8981,1.898,1.8979,1.8978,0,0,1.8816,1.8844,1.8859,1.8873,1.8899,1.8931,1.8978,1.9013,1.9035,1.906,1.9098,1.9151,1.913,1.915,1.9144,1.9177,1.925,1.915,1.915,1.9167,1.9334,1.935,1.9364,1.9238,1.924,1.9242,1.9331,0,1.8905,1.8987,1.8982,1.9059,1.9097,1.9074,1.9115,1.9135,1.914,1.9172,1.9177,1.9214,1.9184,1.9196,1.9227,1.9234,1.9283,1.9228,1.9273,1.9275,1.9267,1.9379,1.9397,1.948,1.9343,1.9345,1.9346,0,1.9021,1.9049,1.913,1.9149,1.9165,1.9202,1.9233,1.9264,1.9286,1.9287,1.9309,1.9297,1.9344,1.9303,1.9367,1.9329,1.9348,1.9354,1.9357,1.936,1.9315,1.9385,1.9507,1.9519,1.9364,1.9363,1.9361,0,1.9098,1.9157,1.9213,1.9226,1.925,1.9276,1.9287,1.9306,1.9327,1.9355,1.9368,1.9401,1.9419,1.9444,1.9441,1.9412,1.9506,1.9465,1.9507,1.9507,1.9528,1.9526,1.9653,1.9541,1.9541,1.954,1.954,0,1.9199,1.9249,1.9247,1.9282,1.9337,1.933,1.9384,1.9392,1.941,1.9444,1.9427,1.946,1.9454,1.9487,1.9485,1.9538,1.9546,1.9548,1.9547,1.9549,1.9549,1.9561,1.9555,1.9544,1.9543,1.9542,1.9542,0,1.9295,1.9296,1.9355,1.9372,1.9378,1.9417,1.9432,1.9464,1.9467,1.9511,1.9521,1.9526,1.9564,1.9563,1.9607,1.9605,1.967,1.9662,1.9662,1.966,1.9702,1.9698,1.9841,1.9859,1.9736,1.9737,1.9738,0,1.9358,1.9396,1.9418,1.944,1.9452,1.9488,1.9509,1.9504,1.9527,1.9554,1.9582,1.9618,1.9647,1.9708,1.9715,1.9748,1.974,1.9788,1.9745,1.9746,1.974,1.9738,1.9741,1.9796,1.9798,1.9799,1.98,0,1.9471,1.9469,1.9501,1.9533,1.9558,1.9583,1.9606,1.9625,1.9621,1.9648,1.9686,1.9708,1.9752,1.9788,1.9819,1.983,1.9814,1.9813,1.9825,1.9827,1.9825,1.9826,1.9684,1.981,1.9809,1.9808,1.9808,1.9807,1.9552,1.9584,1.9604,1.9639,1.9656,1.9677,1.9707,1.9714,1.9746,1.9781,1.9775,1.9818,1.9838,1.9878,1.9892,1.9924,1.9908,1.9924,1.9929,1.9933,1.9937,1.9821,1.993,1.993,1.993,1.9929,1.9929,0,1.9663,1.9674,1.9707,1.9739,1.9766,1.9749,1.9773,1.9797,1.9835,1.9855,1.9883,1.9926,1.996,1.997,2.0003,2.0028,2.0021,2.0036,2.0034,2.0037,1.995,1.9937,2.0041,2.0041,2.0041,2.0041,2.0041,2.0041,1.9724,1.9777,1.9777,1.9838,1.9849,1.989,1.9905,1.9925,1.994,1.9989,2.0018,2.0024,2.0039,2.0073,2.0103,2.0105,2.0118,2.0136,2.0135,2.0054,2.0043,2.0032,2.0019,2.0139,2.0139,2.0218,2.0219,2.022]},{"header":{"parameterUnit":"m.s-1","parameterCategory":1,"la1":30.2991,"la2":30.254,"lo1":-89.0895,"lo2":-89.0444,"dy":0.0017,"dx":0.0017,"nx":28,"ny":28,"refTime":"2023-07-31T09:00:00:Z","depth":0,"parameterNumber":3,"parameterNumberName":"V-component_of_WINDS"},"data":[0,0,0,0,0,0,0,0,0,0,0,0,0,0,0,0,0,0,0,0,0,0,0,0,0,0,0,0,0,0,0,0,0,0,0,0,0,0,0,0,0,0,0,0,0,0,0,0,0,0,0,0,0,0,0,0,0,0,1.4474,1.4473,0,1.4382,1.4381,1.438,1.4288,1.4287,1.4286,1.4285,1.4186,1.4185,1.4183,0,0,0,0,0,0,0,0,0,0,0,0,0,1.4567,1.4565,1.4474,1.4473,1.4472,1.4382,1.4381,1.4379,1.4288,1.4287,1.4285,1.4284,1.4187,1.4185,1.4183,0,0,0,0,0,0,0,0,0,0,0,0,0,1.4506,1.4565,1.4474,1.4416,1.4409,1.4382,1.4381,1.4379,1.4289,1.4287,1.4285,1.4283,1.4187,1.4185,1.4183,1.4205,0,0,1.4176,1.4175,0,0,0,0,0,0,0,0,1.4509,1.4502,1.4425,1.442,1.4413,1.4345,1.4377,1.4321,1.4289,1.4334,1.4285,1.4283,1.424,1.4233,1.422,1.42,1.4196,1.4176,1.4175,1.4174,1.4173,0,0,0,0,0,0,0,1.4514,1.4506,1.4437,1.4424,1.4417,1.4392,1.4382,1.4366,1.4298,1.433,1.4324,1.4314,1.4236,1.4222,1.4217,1.4195,1.4176,1.4174,1.4173,1.4172,1.4187,1.4189,0,0,0,0,0,0,1.4527,1.451,1.444,1.4435,1.4458,1.4392,1.438,1.4368,1.4298,1.4286,1.4316,1.431,1.4227,1.422,1.4213,1.4234,1.4174,1.4171,1.417,1.4185,1.4187,1.4189,0,0,0,0,0,0,1.453,1.4522,1.4444,1.447,1.4459,1.4393,1.438,1.4367,1.4353,1.4287,1.4274,1.4314,1.4225,1.4216,1.4208,1.4229,1.417,1.4168,1.4183,1.4186,1.4188,1.4275,0,0,0,0,0,0,1.4533,1.4523,1.4532,1.4471,1.4458,1.4442,1.4381,1.4367,1.435,1.4342,1.4283,1.4271,1.4223,1.4212,1.4206,1.4225,1.4167,1.4181,1.4184,1.4187,1.427,1.4281,1.429,0,0,0,0,0,1.4536,1.456,1.4533,1.4525,1.4468,1.4443,1.4435,1.4381,1.4352,1.436,1.4317,1.4273,1.4228,1.4212,1.4204,1.4223,1.4179,1.4183,1.4187,1.4266,1.4279,1.4289,0,0,0,0,0,0,1.4624,1.4551,1.452,1.4525,1.4491,1.4428,1.4436,1.4397,1.4369,1.4362,1.4295,1.4282,1.4281,1.4251,1.4234,1.424,1.4197,1.42,1.426,1.4271,1.4281,1.4288,1.4165,0,0,0,0,0,1.4644,1.4632,1.4568,1.4578,1.4563,1.4503,1.449,1.4451,1.4413,1.4398,1.4354,1.4318,1.4295,1.4281,1.4257,1.4265,1.425,1.4274,1.4284,1.4292,1.4295,1.4296,1.4306,1.4202,1.4202,1.4202,0,0,1.4685,1.4643,1.464,1.4595,1.4564,1.4551,1.4491,1.448,1.447,1.4395,1.4385,1.4352,1.4306,1.4306,1.4304,1.4281,1.4321,1.4297,1.4305,1.4303,1.4301,1.4311,1.432,1.4205,1.4204,1.4204,0,0,1.4753,1.4721,1.4726,1.4696,1.4651,1.461,1.4612,1.4554,1.4529,1.4518,1.4462,1.4447,1.441,1.4379,1.4359,1.4415,1.4373,1.4409,1.4459,1.4461,1.4469,1.4476,1.4495,1.4503,1.4412,1.4412,1.4412,0,1.4809,1.4789,1.4733,1.4726,1.4707,1.464,1.4644,1.4617,1.4566,1.4553,1.4529,1.448,1.4444,1.4436,1.445,1.4436,1.4434,1.4415,1.4473,1.4479,1.4485,1.4502,1.4509,1.4417,1.4416,1.4416,1.4415,0,1.486,1.4847,1.4856,1.481,1.4792,1.479,1.4732,1.472,1.4683,1.4645,1.4633,1.4588,1.4553,1.4548,1.4511,1.4534,1.4521,1.4486,1.4441,1.45,1.4515,1.4522,1.4424,1.4422,1.4421,1.4419,0,0,1.4981,1.4903,1.4907,1.4885,1.4829,1.4817,1.4812,1.4779,1.477,1.4736,1.4729,1.4699,1.4665,1.4642,1.4601,1.4603,1.4649,1.4566,1.4564,1.4583,1.467,1.4697,1.4705,1.462,1.4621,1.4622,1.4673,0,1.5039,1.5027,1.4975,1.4978,1.4964,1.49,1.4895,1.486,1.4824,1.4806,1.4765,1.4745,1.4703,1.4688,1.4687,1.4644,1.4665,1.4639,1.4611,1.4611,1.4625,1.4713,1.4742,1.4792,1.4679,1.468,1.4681,0,1.5105,1.5077,1.5079,1.5023,1.5016,1.5012,1.4977,1.4962,1.4919,1.4893,1.4867,1.4822,1.481,1.477,1.4752,1.4736,1.4721,1.4698,1.4698,1.4693,1.4649,1.471,1.4807,1.4815,1.4689,1.4689,1.4688,0,1.5193,1.5155,1.5151,1.5134,1.5069,1.5068,1.504,1.4997,1.498,1.4949,1.4937,1.4904,1.4886,1.4862,1.4808,1.4783,1.4796,1.4751,1.4772,1.4774,1.4778,1.4778,1.4873,1.4769,1.4769,1.4769,1.4769,0,1.5263,1.5266,1.5189,1.5187,1.5188,1.5128,1.513,1.5096,1.5058,1.5046,1.4988,1.4978,1.4908,1.4889,1.4847,1.4838,1.4831,1.4808,1.4796,1.4813,1.4816,1.4802,1.4797,1.4771,1.4771,1.477,1.477,0,1.536,1.5309,1.53,1.524,1.5225,1.5228,1.5175,1.5169,1.513,1.5116,1.5109,1.5047,1.5022,1.4966,1.4925,1.4896,1.4898,1.4878,1.4913,1.4906,1.4931,1.4929,1.502,1.5028,1.492,1.4921,1.4922,0,1.5408,1.5409,1.5349,1.5338,1.5314,1.5296,1.5279,1.5219,1.5204,1.5155,1.5155,1.5126,1.51,1.5062,1.5012,1.4981,1.4959,1.4993,1.4953,1.497,1.4958,1.4959,1.4958,1.5001,1.5003,1.5004,1.5005,0,1.5498,1.5473,1.5451,1.5421,1.5402,1.5375,1.5344,1.5338,1.527,1.5255,1.523,1.5209,1.5169,1.514,1.5101,1.507,1.5026,1.5018,1.5021,1.5038,1.5058,1.5047,1.4937,1.5016,1.5015,1.5014,1.5014,1.5013,1.5572,1.5569,1.5527,1.5504,1.5475,1.5448,1.544,1.5399,1.5378,1.5341,1.5307,1.5284,1.524,1.5184,1.5156,1.5137,1.5115,1.5119,1.512,1.5122,1.5129,1.5062,1.5129,1.5129,1.5128,1.5128,1.5128,0,1.5658,1.5628,1.5608,1.5567,1.5549,1.5511,1.5475,1.5462,1.5444,1.5407,1.5383,1.5353,1.5325,1.5273,1.5239,1.5234,1.5212,1.5227,1.5226,1.522,1.5151,1.5152,1.5244,1.5244,1.5244,1.5244,1.5244,1.5244,1.5701,1.5696,1.5665,1.5644,1.5612,1.5592,1.5574,1.5548,1.5519,1.5489,1.5466,1.5432,1.5389,1.5352,1.5324,1.5309,1.5299,1.532,1.5299,1.5236,1.5225,1.5214,1.5214,1.5318,1.5318,1.5368,1.5369,1.5369]}]]